Wind_Speed
7 6 6 4 5 6 6 7 9 10 12 14 15 17 19 19 20 21 20 18 16 13 10 9 10 12 14 17 20 22 24 26 26 24 22 19 17 16 16 17 17 19 24 25 22 20 19 18 17 16 15 15 14 14 15 16 16 16 16 16 16 16 16
9 7 7 6 3 4 5 6 8 9 11 13 14 16 18 19 20 20 19 18 16 13 11 10 11 13 14 16 18 20 22 24 27 28 26 24 21 19 18 18 19 19 22 26 26 24 22 20 19 18 18 17 15 14 15 16 17 17 17 18 18 18 18
10 8 8 8 6 6 7 7 8 8 8 9 11 13 16 18 19 20 19 17 15 12 12 13 13 14 16 17 18 19 20 22 25 28 29 28 25 23 20 19 20 21 23 26 28 28 26 23 22 21 20 19 16 14 15 16 17 18 17 18 18 19 20
10 9 8 8 9 10 10 10 11 10 10 11 11 12 14 15 17 19 18 16 15 14 15 16 15 15 16 17 19 20 20 20 21 25 28 29 28 26 23 20 20 23 24 24 25 27 27 25 23 22 21 21 19 16 15 16 18 18 17 17 18 19 20
11 10 10 10 11 13 14 13 12 12 12 13 13 13 15 15 16 17 16 14 13 15 16 17 17 16 16 16 18 20 21 20 20 22 25 27 28 28 25 23 22 23 24 24 23 25 28 29 26 22 20 20 21 19 17 17 18 18 18 18 19 20 20
12 12 12 12 13 15 17 16 15 14 13 14 14 14 15 16 16 16 16 13 12 15 16 16 17 16 15 15 16 19 22 21 20 20 22 24 26 27 26 25 25 23 23 24 24 25 29 33 31 26 23 21 21 20 19 18 18 19 20 20 20 20 21
14 14 14 15 16 17 17 18 18 17 16 15 15 15 16 16 17 18 18 16 15 16 17 16 17 17 15 14 14 17 22 22 19 18 19 20 22 24 25 25 25 24 23 23 25 26 29 35 35 30 27 24 22 21 21 20 19 20 21 22 22 20 20
14 15 16 16 18 18 19 20 20 20 19 17 16 16 16 17 18 19 18 17 16 17 17 16 16 16 15 14 14 16 20 23 20 18 18 18 19 22 24 24 25 25 24 23 25 26 28 33 35 33 29 26 24 23 23 22 21 21 22 23 23 22 20
14 15 17 18 20 21 21 23 23 22 22 20 18 17 16 17 18 18 17 16 16 17 17 17 16 15 15 15 15 15 18 22 22 19 18 18 17 19 23 24 24 25 25 24 25 26 27 31 34 35 33 30 27 25 24 24 24 23 23 23 24 23 22
16 17 18 20 21 22 22 24 25 23 23 22 20 18 17 17 17 17 16 15 16 17 17 17 16 16 15 16 16 15 16 21 23 21 19 18 17 18 20 23 23 23 24 25 25 26 28 29 33 36 36 34 31 28 26 26 26 24 24 23 24 24 24
18 19 21 22 21 21 22 24 25 24 23 22 20 18 17 17 17 16 16 15 15 17 18 17 16 16 16 16 17 17 17 19 22 22 20 19 18 17 18 21 22 21 22 24 25 26 27 27 29 33 37 37 35 30 27 27 27 26 25 24 23 24 25
20 21 23 23 23 23 24 25 25 24 23 22 21 19 19 19 18 17 17 15 16 18 20 19 18 17 17 17 17 18 18 18 20 22 22 21 20 18 18 20 22 22 21 21 23 24 25 26 26 29 33 36 38 34 30 29 28 27 26 25 23 24 24
23 24 24 24 24 24 24 24 24 23 22 21 21 21 21 21 21 20 18 16 16 18 20 21 21 20 19 18 17 18 19 20 20 21 22 22 21 20 19 20 21 22 22 21 21 22 23 24 25 27 28 31 37 38 34 32 30 28 27 26 25 24 24
25 25 26 26 25 24 23 23 22 21 21 21 22 22 22 23 23 23 22 19 17 18 20 22 23 23 21 20 18 18 19 21 21 22 22 23 23 22 21 21 22 23 23 22 22 22 22 23 24 26 26 28 34 39 38 35 33 31 29 27 27 26 24
26 26 26 27 27 26 25 24 22 21 20 21 22 23 23 24 24 25 25 22 21 21 21 21 23 24 23 22 21 20 20 21 22 23 23 23 24 23 21 20 22 23 23 23 22 22 22 23 23 24 26 27 31 37 40 38 35 35 33 30 28 27 26
28 27 27 27 27 27 25 24 22 22 21 22 23 24 25 25 26 27 27 26 24 22 21 21 23 23 23 23 23 23 22 22 22 23 23 23 23 23 21 20 21 23 23 23 23 23 23 23 23 23 25 27 28 33 38 39 39 38 36 34 32 29 28
28 27 26 25 26 26 24 22 22 22 22 23 24 25 26 27 27 28 29 28 25 22 20 21 22 22 22 24 24 25 24 23 22 22 23 23 23 23 22 22 21 23 23 22 22 23 23 24 25 24 24 25 27 30 34 38 42 42 39 37 36 33 31
28 25 23 23 24 23 21 21 21 21 22 23 24 25 26 27 28 29 30 29 26 24 21 19 19 21 22 24 25 25 24 23 22 22 23 23 23 23 23 23 23 23 23 22 21 22 23 24 25 25 25 25 27 29 31 35 41 44 43 41 39 37 35
29 25 23 22 21 19 18 19 19 19 20 21 22 23 25 27 28 28 29 28 27 25 21 18 19 20 22 24 25 25 24 23 22 22 23 23 23 23 24 24 24 24 23 22 21 22 23 24 24 25 26 26 27 28 29 32 36 42 45 44 42 40 38
30 26 24 23 21 19 18 17 17 17 17 18 19 20 22 24 25 26 27 27 26 25 22 20 19 20 21 23 23 23 23 23 23 23 23 23 22 23 24 25 25 25 25 24 22 22 23 23 24 25 25 26 27 27 28 29 32 37 42 44 44 42 40
31 28 26 26 24 22 18 16 16 17 17 17 18 18 20 22 23 25 26 27 26 25 24 21 19 19 20 21 21 21 21 21 22 23 23 23 22 22 24 25 26 25 25 25 24 24 24 24 24 24 24 25 26 27 27 27 29 33 38 41 44 44 42
31 30 28 29 27 23 19 16 15 16 17 19 19 18 19 21 23 24 25 26 26 26 25 23 21 19 19 19 19 19 19 19 20 21 22 23 23 22 23 25 26 26 26 26 26 25 25 25 24 24 24 24 24 25 26 27 27 29 33 36 40 43 43
34 32 31 31 29 25 21 18 17 16 17 19 20 18 18 19 20 22 23 23 24 25 24 24 21 19 19 19 19 19 19 19 19 19 20 22 22 23 24 25 26 27 27 27 28 26 25 25 24 24 24 24 24 23 24 25 26 28 30 31 34 39 42
36 35 35 34 32 28 24 22 20 18 17 18 18 17 16 17 17 19 20 21 23 24 24 24 22 19 19 19 19 20 20 19 19 19 19 20 22 23 24 25 27 28 28 28 29 28 26 25 24 24 23 23 23 23 23 24 24 26 29 30 32 35 38
36 36 36 36 34 31 27 25 22 19 17 18 17 17 17 16 15 17 19 20 21 23 24 23 22 20 20 20 20 21 21 20 20 20 19 20 22 23 24 26 28 29 30 29 29 29 28 26 24 24 23 22 21 21 21 21 23 26 29 31 32 33 35
36 37 38 38 37 33 29 27 25 21 20 20 18 18 19 18 17 19 21 21 22 23 23 23 23 22 21 21 21 22 22 22 21 20 20 20 21 23 24 26 27 30 31 31 30 30 30 29 27 25 24 22 20 18 18 19 22 25 28 29 31 33 34
39 39 40 39 37 33 30 29 28 25 23 22 20 20 20 21 21 21 22 23 23 24 23 23 23 22 21 22 22 23 23 23 21 20 20 21 21 23 24 25 27 29 31 32 31 31 31 30 29 28 25 23 21 19 18 18 20 23 26 28 30 31 33
42 43 43 40 37 34 32 31 29 27 26 24 21 20 21 22 23 22 22 22 23 23 23 23 22 22 22 23 23 24 23 23 22 20 20 21 21 22 23 24 25 28 30 32 32 32 31 31 31 30 28 26 24 22 21 20 20 21 23 25 28 31 32
44 44 44 42 40 38 36 33 31 30 28 27 24 22 21 23 23 22 21 21 22 22 22 22 22 22 22 23 24 24 24 23 22 21 20 20 20 20 21 22 23 25 28 31 32 32 32 31 30 30 29 28 26 25 24 22 20 19 20 22 25 28 31
43 42 42 42 41 40 39 37 35 33 32 30 28 26 25 24 24 23 22 21 21 20 20 21 21 21 22 23 24 24 24 24 23 22 21 20 20 20 20 20 21 22 25 28 31 32 32 32 31 29 28 27 26 25 24 22 20 19 20 20 21 22 26
41 40 40 41 41 41 41 40 38 36 34 33 31 29 27 26 25 24 23 22 21 20 20 20 20 21 21 22 23 23 24 23 23 22 21 20 19 19 19 19 19 20 22 25 29 31 31 31 30 28 26 25 24 24 23 21 20 19 19 20 20 21 22
40 39 39 40 41 41 40 39 37 35 33 32 31 29 27 25 24 23 23 23 21 20 20 20 20 20 21 22 23 23 23 22 22 21 21 20 19 19 19 19 19 19 20 22 25 28 30 30 29 27 24 23 23 22 21 19 17 17 17 18 21 22 22
41 40 40 39 38 37 36 34 33 32 30 28 27 26 25 23 22 22 22 22 21 21 21 21 21 21 21 22 22 22 22 22 21 21 21 21 20 20 20 20 19 19 19 19 22 26 28 28 28 26 24 22 22 22 20 18 17 17 17 18 19 20 20
37 36 36 35 34 33 33 32 31 29 27 25 25 25 24 22 20 20 21 22 22 22 21 21 22 22 22 22 22 22 22 22 22 22 22 21 21 21 20 20 19 19 18 18 20 23 26 27 27 26 24 23 22 21 20 19 18 18 17 17 18 19 21
33 33 34 35 35 34 33 32 30 28 26 24 24 24 23 22 21 21 22 22 22 22 21 22 22 23 23 22 22 22 22 22 23 23 22 21 21 22 21 20 19 19 18 18 18 20 22 24 25 25 25 23 22 20 20 20 20 20 19 18 19 20 22
34 35 36 37 36 34 32 30 28 26 24 24 23 23 22 22 22 22 23 23 23 22 22 22 21 22 22 22 21 21 20 20 21 22 21 20 21 21 21 21 20 18 18 18 18 18 20 21 22 23 23 23 22 20 20 20 21 22 22 22 21 21 21
34 35 36 35 33 31 30 29 26 25 24 23 22 21 21 21 22 22 23 24 23 23 22 22 21 20 21 21 21 20 19 19 20 21 20 20 20 21 21 20 20 19 18 18 18 18 18 19 19 20 22 22 21 20 20 21 21 22 23 24 23 22 22
Wind_Direction
245 251 252 242 216 227 247 245 244 253 262 267 270 272 275 277 279 282 284 289 294 293 284 274 271 274 270 262 257 253 246 241 240 240 237 234 231 229 233 238 233 225 227 230 223 213 213 214 213 216 218 215 210 208 209 210 210 210 208 204 201 202 203
260 260 266 275 264 265 276 260 255 262 264 263 263 265 269 271 272 273 275 280 283 284 280 271 266 267 269 265 262 260 255 246 242 241 241 238 235 233 230 233 237 231 224 228 228 220 214 214 213 214 218 219 213 209 210 211 211 211 212 208 202 201 203
258 265 271 282 294 304 303 297 297 299 293 282 274 269 269 270 271 271 271 272 273 277 277 270 262 259 260 261 258 257 257 253 246 243 242 242 240 239 235 232 236 238 231 227 227 223 215 213 214 213 214 218 217 213 211 212 212 212 213 213 208 204 204
254 269 278 289 299 303 305 308 312 315 313 305 297 288 282 278 276 274 272 270 269 272 271 268 265 260 257 258 257 254 255 256 253 247 246 246 244 242 241 239 239 242 242 238 235 231 222 216 218 218 214 213 214 214 213 213 213 212 211 213 213 210 208
253 266 276 287 293 296 299 303 308 310 308 304 300 296 291 286 282 278 275 272 273 272 268 268 269 265 260 260 259 256 254 255 255 251 249 249 247 244 243 244 243 241 241 240 238 237 227 218 221 227 225 219 213 209 210 213 214 211 210 212 213 212 211
257 262 269 278 285 289 293 298 304 308 306 303 302 302 297 290 288 284 280 278 279 276 274 276 277 274 270 266 264 259 253 252 255 254 250 249 248 247 245 245 247 246 242 237 236 235 225 217 218 224 227 228 224 214 208 211 213 212 211 212 213 213 212
260 265 270 276 281 285 291 297 301 305 307 307 306 304 299 293 292 290 285 281 279 278 280 284 284 282 278 271 267 261 253 249 251 255 255 251 248 248 247 246 250 251 247 239 237 236 226 217 218 221 223 225 227 223 215 211 212 214 214 212 212 213 212
262 266 271 276 281 288 293 296 297 299 302 304 303 299 295 292 292 292 289 286 282 279 281 285 286 286 282 275 269 262 253 247 247 251 256 254 248 244 243 245 248 251 250 243 238 236 228 221 221 223 224 223 224 225 223 218 215 215 217 216 213 211 212
265 268 274 277 282 286 289 289 291 294 296 297 298 295 292 291 292 292 292 291 286 281 280 283 284 284 282 277 272 266 254 246 244 246 251 254 251 242 238 240 245 250 250 245 239 235 229 225 223 224 226 226 223 222 223 224 220 218 219 219 216 213 212
265 269 273 274 276 278 280 281 284 287 289 291 292 292 292 291 290 290 290 290 288 284 280 279 278 277 276 273 271 269 259 248 244 244 248 253 254 247 238 237 242 249 250 247 243 237 232 228 225 223 226 228 226 221 220 223 223 221 221 221 220 217 214
263 266 268 269 271 273 275 276 279 282 284 285 286 288 290 288 285 285 284 284 288 285 279 274 272 270 270 269 268 267 264 254 247 244 246 250 254 253 245 239 239 245 249 248 247 244 241 238 233 228 228 231 230 225 221 222 223 223 222 222 223 223 220
268 268 268 270 272 272 271 271 274 277 279 280 283 287 289 288 286 286 284 283 288 286 278 272 269 267 266 267 267 267 266 262 253 247 245 247 252 254 251 246 243 243 245 245 246 248 248 248 244 237 234 233 232 229 225 224 225 225 222 220 221 225 226
274 273 273 275 277 276 272 269 270 272 275 278 282 285 287 287 289 293 292 290 290 285 278 273 268 266 266 265 266 266 265 263 258 253 248 246 250 253 252 250 249 247 246 245 243 245 248 251 250 246 242 238 234 231 228 225 225 227 226 222 219 221 226
276 277 279 281 281 279 277 275 272 271 272 275 279 282 284 286 290 293 294 295 293 285 278 274 269 265 265 265 266 264 261 260 258 256 252 248 248 251 252 250 250 251 250 249 245 243 245 249 251 250 247 243 235 230 230 229 226 227 229 226 221 219 220
274 276 278 280 280 278 277 276 274 272 271 272 275 278 280 283 287 289 290 292 293 288 283 278 271 265 263 264 264 263 261 258 256 255 253 250 248 249 252 253 252 251 252 251 249 246 245 248 251 250 248 245 235 227 229 233 232 230 230 229 226 222 217
273 272 273 274 274 273 272 271 271 271 270 270 271 273 276 279 281 283 285 288 290 292 289 282 273 266 263 260 260 261 260 258 256 254 253 252 250 249 251 252 252 251 250 250 249 247 246 246 249 250 248 246 239 228 227 232 236 236 233 231 230 227 222
272 270 269 269 270 270 268 267 267 267 267 267 268 269 271 274 275 277 280 284 287 291 291 284 274 267 262 259 257 258 259 259 258 255 254 253 251 248 248 248 248 247 247 248 248 248 247 245 246 249 249 247 243 237 233 234 237 238 236 234 234 233 230
272 270 269 271 273 273 271 269 268 268 269 268 267 267 267 269 272 275 277 280 283 285 285 279 270 265 263 261 259 258 259 260 258 256 254 253 251 248 245 244 244 245 245 245 245 247 248 247 246 246 247 248 246 244 242 240 239 238 237 236 235 236 236
273 271 271 274 275 272 270 272 274 273 272 269 266 265 265 266 269 271 274 276 278 280 279 272 263 259 259 261 262 262 263 262 258 255 254 253 251 248 245 243 242 242 243 243 241 242 245 247 247 246 245 246 247 247 246 245 241 237 236 236 235 235 237
273 272 272 274 273 268 267 271 276 277 274 269 264 263 264 265 267 269 272 275 279 281 279 272 263 256 255 258 261 263 264 263 259 256 254 253 251 248 246 244 242 240 241 241 239 237 239 242 246 246 246 245 246 247 247 246 243 238 237 237 236 234 235
270 271 272 273 270 267 265 268 275 279 277 272 267 266 267 269 270 273 276 280 283 284 281 275 268 261 258 260 261 262 262 262 260 258 256 254 252 249 247 246 244 242 240 240 239 236 235 238 241 244 245 244 244 246 247 248 246 241 237 238 238 234 232
267 267 268 270 270 269 268 269 275 279 279 278 275 273 274 274 275 278 280 282 283 282 278 273 268 263 262 263 263 262 262 261 259 258 258 257 254 250 247 246 246 245 241 239 239 237 234 236 238 240 242 241 242 244 245 246 246 241 236 236 235 231 230
263 265 267 270 272 272 270 270 273 275 278 280 279 279 282 281 279 279 280 279 278 276 273 269 265 262 262 264 264 264 264 263 261 259 260 260 258 253 249 246 245 246 244 240 239 237 235 235 237 239 240 240 240 241 242 243 244 240 234 231 230 228 229
261 265 268 271 272 272 270 271 272 273 277 281 282 284 285 280 277 277 277 276 275 273 271 268 264 260 260 263 265 266 266 266 266 265 264 264 263 258 252 246 244 244 244 242 239 238 236 235 237 239 241 241 240 239 241 241 241 240 237 233 230 228 230
260 264 267 270 271 270 269 270 270 271 276 281 285 288 285 281 281 281 279 277 275 273 270 267 263 260 260 262 265 266 267 267 267 268 269 268 267 264 257 250 245 243 243 243 241 239 238 237 237 238 239 240 241 241 242 241 241 242 241 238 236 235 235
258 261 264 267 268 267 267 269 271 273 276 279 284 289 288 286 287 286 283 280 276 273 271 267 263 261 260 261 263 265 267 268 269 270 272 271 270 268 263 256 248 244 243 242 241 240 239 238 239 239 239 240 241 243 246 245 243 242 243 243 242 241 240
258 261 263 265 266 265 266 268 271 273 275 277 283 290 289 285 284 283 282 279 275 274 272 268 264 261 260 260 261 264 266 269 271 273 274 274 274 272 267 261 254 247 244 243 242 241 241 240 241 241 242 242 243 247 250 249 246 244 243 244 245 244 244
257 261 263 264 264 264 264 265 268 271 275 279 283 288 287 282 279 279 279 277 276 275 273 270 265 261 259 259 260 263 265 268 270 273 275 276 277 275 272 267 259 251 245 243 243 243 243 243 243 244 245 247 248 251 253 252 250 247 244 245 247 247 246
257 258 259 259 260 261 262 265 269 273 277 280 283 287 287 280 275 275 275 275 277 277 275 271 265 261 258 257 259 262 265 267 270 273 275 276 276 277 275 271 265 256 249 245 243 243 244 245 246 246 248 250 252 255 257 257 256 252 248 247 248 249 248
256 255 254 255 258 260 263 266 270 273 276 278 281 285 286 279 271 269 270 273 276 279 278 273 267 262 259 258 259 261 263 265 269 272 274 274 276 276 275 273 269 262 253 247 244 244 244 245 247 248 250 252 254 256 258 259 259 256 252 248 247 249 248
254 256 256 257 258 260 263 266 269 272 274 276 278 282 284 277 268 264 267 271 275 277 277 274 269 264 261 260 261 261 262 264 268 271 272 273 275 277 276 274 271 267 259 251 245 244 245 246 248 249 250 251 252 253 254 256 259 262 260 254 250 249 249
252 255 258 259 259 260 262 265 267 269 271 274 276 278 278 273 265 262 266 271 274 274 274 273 270 265 262 261 261 262 262 264 265 268 270 271 273 276 277 276 273 269 264 256 248 245 245 246 248 249 248 247 247 247 247 247 253 262 264 258 250 247 246
252 254 257 260 259 258 259 261 263 265 267 269 270 271 271 268 261 260 266 271 272 271 272 272 270 268 265 263 263 263 263 263 264 266 269 272 272 272 273 275 274 271 267 261 252 246 244 245 246 247 246 245 243 242 240 240 246 255 257 252 245 238 235
250 250 251 251 250 251 255 258 260 260 260 261 263 265 266 263 258 260 266 269 268 268 269 268 268 268 267 266 266 265 264 264 264 266 268 270 269 268 269 271 272 271 268 263 257 250 246 245 245 245 246 248 245 241 237 236 238 243 246 245 240 232 227
243 242 243 245 247 251 255 256 255 254 254 256 259 261 262 261 261 263 265 264 264 265 264 264 263 264 264 265 265 265 264 264 264 265 265 265 265 265 265 267 270 271 268 264 259 255 250 247 245 244 246 248 248 243 239 237 236 238 240 241 237 231 228
241 241 244 248 251 252 252 251 250 250 251 252 254 257 259 260 260 260 259 259 259 260 259 259 258 259 260 262 262 263 263 263 263 262 261 261 261 262 262 264 267 270 269 264 259 256 253 249 247 245 243 245 247 246 243 243 243 242 242 242 240 236 235
243 244 246 248 249 249 247 245 246 247 246 247 250 253 254 253 253 254 254 255 254 255 256 257 257 258 259 260 261 262 262 262 262 262 260 259 259 259 260 262 264 266 268 265 259 255 252 249 247 244 241 241 243 243 245 249 250 247 244 243 243 240 239
Height
5861 5863 5863 5862 5863 5863 5862 5862 5863 5863 5862 5862 5862 5862 5861 5861 5861 5861 5862 5863 5864 5865 5866 5867 5867 5867 5867 5867 5868 5869 5870 5871 5873 5874 5876 5877 5879 5881 5882 5883 5884 5884 5884 5885 5887 5888 5889 5890 5891 5893 5894 5894 5894 5896 5897 5898 5899 5901 5901 5902 5903 5905 5906
5860 5862 5862 5862 5862 5862 5862 5862 5862 5862 5862 5862 5862 5861 5860 5860 5860 5860 5861 5862 5863 5864 5865 5866 5866 5866 5866 5866 5866 5866 5867 5869 5870 5871 5873 5874 5876 5877 5879 5881 5881 5882 5882 5883 5884 5886 5887 5888 5889 5890 5891 5892 5893 5894 5895 5897 5898 5899 5900 5901 5902 5903 5905
5859 5860 5861 5861 5861 5861 5861 5861 5861 5861 5861 5861 5861 5861 5860 5860 5860 5860 5860 5861 5862 5863 5864 5864 5864 5864 5864 5864 5864 5864 5865 5866 5867 5868 5870 5871 5873 5874 5876 5878 5879 5880 5880 5879 5879 5881 5883 5885 5886 5887 5888 5890 5891 5893 5894 5895 5897 5898 5899 5900 5901 5902 5903
5858 5859 5859 5859 5859 5859 5860 5860 5860 5860 5859 5859 5860 5859 5859 5859 5859 5858 5859 5860 5861 5862 5862 5861 5862 5862 5862 5862 5862 5862 5863 5863 5865 5866 5867 5868 5870 5872 5874 5875 5876 5877 5878 5879 5879 5880 5883 5885 5885 5885 5886 5887 5889 5890 5892 5894 5895 5897 5898 5899 5900 5901 5902
5856 5857 5857 5857 5858 5858 5858 5858 5858 5858 5858 5858 5858 5858 5858 5857 5857 5857 5857 5858 5860 5859 5859 5859 5859 5860 5861 5861 5861 5861 5861 5861 5862 5863 5864 5865 5866 5869 5871 5872 5873 5873 5874 5876 5878 5880 5883 5884 5883 5884 5885 5887 5887 5888 5890 5892 5893 5895 5896 5897 5898 5899 5901
5855 5855 5856 5856 5856 5856 5856 5856 5856 5857 5857 5857 5857 5857 5856 5856 5856 5856 5855 5857 5857 5857 5857 5857 5857 5858 5859 5859 5859 5859 5859 5859 5860 5861 5862 5863 5864 5866 5868 5869 5869 5870 5871 5872 5874 5876 5878 5879 5879 5880 5883 5886 5887 5887 5888 5889 5891 5893 5894 5895 5897 5898 5899
5853 5854 5854 5854 5854 5854 5855 5855 5855 5855 5855 5855 5856 5855 5855 5855 5855 5855 5854 5855 5855 5855 5855 5855 5855 5856 5856 5857 5857 5856 5856 5857 5858 5859 5860 5861 5862 5863 5865 5866 5867 5868 5869 5870 5871 5872 5873 5875 5876 5877 5879 5882 5886 5887 5887 5888 5889 5891 5892 5893 5895 5896 5897
5851 5852 5852 5852 5852 5853 5853 5853 5853 5853 5853 5854 5854 5854 5854 5854 5853 5853 5853 5853 5854 5853 5853 5853 5853 5854 5854 5854 5854 5854 5853 5854 5856 5857 5858 5859 5860 5861 5862 5864 5865 5865 5867 5868 5869 5869 5870 5872 5874 5876 5877 5879 5882 5885 5887 5887 5887 5888 5890 5891 5893 5894 5895
5849 5850 5850 5851 5851 5851 5851 5851 5851 5851 5851 5851 5852 5852 5852 5852 5852 5851 5851 5852 5852 5852 5852 5851 5851 5851 5852 5852 5852 5852 5851 5852 5854 5856 5856 5856 5858 5859 5860 5861 5862 5863 5864 5866 5867 5867 5868 5870 5872 5873 5875 5876 5878 5881 5883 5885 5886 5886 5887 5889 5891 5892 5893
5848 5849 5849 5849 5849 5849 5849 5849 5849 5849 5849 5849 5850 5850 5850 5850 5850 5850 5850 5850 5850 5850 5849 5849 5849 5849 5849 5849 5849 5849 5849 5849 5851 5853 5854 5854 5855 5856 5858 5859 5861 5861 5862 5863 5864 5865 5867 5868 5869 5870 5872 5873 5875 5877 5879 5882 5883 5884 5885 5887 5889 5890 5891
5847 5847 5847 5847 5848 5848 5848 5847 5847 5847 5847 5847 5848 5848 5848 5848 5848 5848 5848 5849 5848 5848 5847 5847 5847 5847 5847 5846 5846 5847 5847 5847 5849 5851 5852 5852 5853 5854 5855 5856 5858 5859 5860 5861 5861 5863 5864 5866 5867 5869 5870 5871 5873 5875 5877 5878 5879 5881 5882 5885 5887 5888 5889
5845 5844 5844 5845 5846 5846 5845 5845 5845 5845 5845 5845 5845 5846 5846 5845 5845 5846 5846 5846 5846 5845 5844 5844 5844 5844 5844 5844 5844 5844 5845 5845 5846 5848 5849 5850 5850 5851 5852 5853 5855 5856 5857 5858 5859 5860 5861 5863 5865 5866 5868 5869 5870 5872 5874 5876 5877 5878 5879 5881 5883 5886 5887
5841 5841 5841 5842 5842 5842 5842 5842 5842 5842 5843 5843 5843 5843 5843 5843 5842 5843 5843 5844 5844 5843 5842 5841 5841 5841 5842 5842 5842 5842 5842 5842 5843 5844 5846 5847 5848 5849 5850 5850 5851 5852 5854 5855 5856 5857 5858 5859 5861 5862 5864 5866 5867 5869 5871 5873 5874 5876 5876 5877 5879 5881 5884
5839 5839 5838 5839 5839 5838 5838 5838 5838 5839 5840 5840 5840 5841 5841 5840 5840 5840 5840 5841 5841 5840 5839 5839 5839 5839 5839 5839 5840 5840 5840 5840 5841 5841 5843 5844 5845 5846 5847 5848 5849 5849 5851 5852 5853 5855 5855 5856 5856 5858 5860 5861 5863 5865 5867 5869 5871 5872 5873 5875 5876 5877 5880
5837 5837 5836 5836 5836 5835 5835 5835 5835 5836 5837 5837 5838 5838 5838 5838 5838 5838 5837 5838 5838 5838 5837 5837 5836 5836 5837 5837 5837 5837 5837 5837 5838 5839 5840 5841 5842 5844 5845 5846 5846 5847 5848 5849 5850 5852 5853 5853 5854 5854 5856 5857 5859 5861 5863 5866 5868 5869 5870 5872 5873 5874 5876
5835 5835 5835 5834 5833 5833 5832 5832 5832 5833 5834 5834 5835 5835 5835 5835 5836 5835 5835 5835 5836 5835 5835 5834 5833 5833 5834 5834 5834 5834 5834 5835 5835 5836 5837 5839 5840 5842 5843 5843 5844 5844 5845 5846 5847 5849 5850 5851 5851 5852 5853 5855 5856 5858 5860 5862 5864 5865 5867 5869 5871 5873 5874
5832 5832 5832 5831 5830 5830 5830 5830 5830 5830 5831 5831 5832 5832 5833 5833 5833 5833 5832 5832 5833 5833 5833 5832 5831 5831 5831 5831 5831 5831 5831 5832 5833 5834 5835 5836 5837 5839 5840 5840 5841 5841 5842 5843 5844 5845 5847 5848 5848 5849 5850 5852 5853 5855 5857 5858 5859 5860 5863 5867 5869 5870 5872
5829 5829 5829 5828 5827 5827 5827 5827 5828 5828 5828 5828 5829 5829 5830 5830 5830 5830 5830 5829 5830 5830 5830 5830 5829 5828 5828 5828 5828 5828 5829 5830 5831 5832 5832 5833 5834 5835 5836 5837 5838 5838 5839 5840 5841 5842 5843 5844 5845 5847 5848 5849 5851 5852 5854 5855 5856 5857 5859 5863 5865 5868 5869
5825 5826 5826 5826 5826 5826 5826 5825 5825 5826 5825 5825 5826 5826 5827 5827 5827 5827 5826 5826 5827 5827 5827 5827 5827 5826 5826 5825 5825 5826 5827 5828 5828 5829 5829 5830 5831 5832 5833 5833 5834 5835 5836 5836 5838 5839 5840 5841 5842 5843 5845 5846 5847 5849 5850 5851 5852 5853 5855 5858 5861 5864 5866
5821 5822 5823 5823 5823 5824 5824 5824 5824 5823 5823 5823 5823 5823 5824 5824 5824 5824 5824 5824 5824 5824 5824 5824 5824 5824 5823 5823 5823 5824 5824 5825 5825 5825 5826 5827 5828 5828 5829 5830 5831 5831 5832 5834 5835 5836 5837 5837 5838 5840 5841 5843 5844 5845 5846 5848 5849 5850 5851 5854 5856 5859 5861
5818 5819 5820 5820 5820 5821 5822 5823 5822 5821 5821 5820 5820 5821 5821 5821 5821 5821 5821 5821 5821 5821 5821 5821 5821 5821 5821 5821 5821 5821 5822 5822 5822 5822 5823 5824 5825 5826 5826 5826 5827 5828 5829 5831 5832 5833 5834 5834 5836 5837 5838 5839 5840 5841 5842 5844 5845 5846 5848 5849 5852 5854 5857
5814 5815 5816 5816 5817 5818 5820 5821 5820 5819 5819 5818 5818 5819 5819 5818 5819 5818 5818 5818 5818 5817 5817 5818 5818 5818 5818 5818 5818 5819 5819 5819 5819 5820 5820 5821 5822 5822 5823 5823 5824 5825 5826 5827 5829 5830 5831 5831 5832 5834 5835 5836 5837 5837 5838 5840 5841 5842 5844 5845 5846 5849 5852
5810 5812 5813 5813 5814 5816 5817 5818 5817 5817 5817 5816 5816 5817 5817 5816 5816 5816 5815 5815 5814 5814 5814 5814 5815 5816 5815 5815 5815 5816 5816 5816 5816 5817 5817 5817 5818 5819 5820 5820 5821 5821 5822 5823 5825 5826 5827 5828 5829 5830 5831 5833 5834 5834 5835 5836 5837 5838 5840 5840 5841 5844 5847
5807 5809 5809 5810 5810 5812 5814 5815 5815 5815 5814 5814 5815 5815 5814 5814 5813 5813 5812 5812 5811 5811 5811 5812 5812 5813 5813 5813 5813 5813 5813 5813 5813 5814 5814 5814 5815 5815 5816 5817 5817 5818 5818 5819 5821 5822 5824 5825 5826 5826 5828 5829 5830 5831 5832 5833 5834 5835 5835 5836 5837 5839 5841
5804 5805 5805 5806 5807 5808 5810 5811 5811 5812 5812 5812 5812 5812 5811 5811 5811 5810 5810 5809 5809 5808 5809 5809 5810 5810 5810 5810 5811 5810 5810 5810 5810 5811 5811 5811 5811 5812 5812 5813 5813 5814 5815 5816 5817 5818 5820 5822 5822 5823 5824 5825 5827 5828 5829 5830 5831 5831 5831 5832 5834 5835 5837
5801 5801 5802 5802 5803 5805 5807 5808 5808 5808 5809 5809 5809 5809 5809 5809 5809 5808 5807 5806 5806 5805 5806 5806 5807 5807 5807 5808 5808 5808 5807 5807 5808 5808 5808 5808 5808 5808 5808 5809 5809 5810 5811 5812 5813 5815 5816 5818 5819 5820 5820 5821 5822 5824 5825 5826 5827 5827 5828 5829 5830 5832 5834
5797 5797 5798 5798 5800 5802 5804 5804 5805 5805 5806 5806 5807 5807 5807 5807 5807 5806 5804 5803 5803 5803 5803 5803 5804 5804 5805 5805 5805 5805 5805 5805 5806 5806 5806 5806 5805 5805 5805 5805 5805 5806 5807 5808 5809 5811 5812 5813 5815 5816 5817 5818 5819 5820 5821 5822 5823 5823 5824 5825 5826 5828 5830
5793 5794 5794 5795 5797 5799 5800 5801 5801 5802 5803 5803 5804 5804 5804 5804 5804 5803 5802 5801 5800 5800 5800 5801 5801 5802 5802 5802 5802 5802 5802 5803 5804 5804 5804 5803 5803 5802 5802 5802 5802 5802 5803 5804 5806 5807 5808 5809 5811 5812 5813 5814 5815 5816 5817 5818 5819 5819 5820 5821 5822 5823 5825
5789 5790 5791 5792 5793 5794 5796 5797 5798 5799 5800 5800 5801 5801 5802 5801 5801 5800 5799 5798 5798 5798 5798 5798 5798 5799 5800 5800 5799 5799 5800 5801 5802 5802 5802 5801 5800 5800 5799 5799 5798 5799 5799 5800 5802 5803 5804 5806 5807 5809 5810 5811 5811 5812 5813 5814 5815 5815 5816 5817 5818 5818 5820
5784 5786 5787 5788 5790 5791 5792 5793 5794 5795 5796 5796 5797 5798 5798 5798 5798 5797 5796 5796 5796 5795 5795 5795 5796 5796 5797 5797 5796 5797 5798 5799 5799 5799 5799 5799 5798 5797 5797 5796 5796 5796 5796 5797 5798 5799 5801 5802 5804 5805 5806 5807 5808 5808 5809 5810 5811 5811 5811 5812 5813 5814 5815
5780 5782 5783 5785 5786 5787 5788 5790 5791 5791 5792 5792 5793 5794 5795 5795 5794 5794 5794 5793 5793 5793 5793 5793 5793 5793 5794 5794 5794 5794 5795 5796 5797 5796 5796 5796 5796 5795 5794 5794 5794 5793 5793 5794 5795 5796 5798 5799 5800 5802 5803 5804 5804 5805 5806 5807 5808 5808 5808 5808 5809 5810 5810
5776 5778 5779 5781 5782 5783 5785 5786 5787 5787 5788 5789 5789 5790 5791 5791 5791 5791 5791 5791 5791 5791 5790 5790 5790 5790 5791 5791 5791 5792 5793 5794 5794 5794 5794 5794 5793 5793 5792 5791 5791 5791 5791 5791 5792 5793 5794 5796 5797 5798 5800 5800 5801 5802 5803 5804 5804 5805 5805 5805 5805 5806 5807
5772 5774 5775 5777 5778 5779 5780 5782 5783 5783 5784 5785 5786 5787 5787 5787 5787 5788 5788 5788 5788 5788 5788 5788 5788 5788 5788 5788 5789 5790 5791 5791 5791 5791 5791 5791 5791 5790 5789 5789 5789 5789 5789 5789 5789 5789 5791 5792 5794 5795 5796 5797 5798 5799 5799 5800 5801 5801 5802 5802 5802 5803 5804
5767 5770 5771 5772 5773 5774 5776 5777 5778 5779 5780 5782 5783 5783 5783 5784 5784 5785 5785 5785 5785 5785 5785 5785 5785 5785 5785 5786 5787 5787 5788 5788 5788 5788 5789 5788 5788 5787 5787 5786 5786 5786 5786 5786 5787 5787 5788 5789 5790 5792 5793 5794 5795 5796 5796 5797 5798 5798 5799 5800 5800 5800 5800
5763 5764 5765 5767 5769 5770 5771 5772 5774 5775 5777 5778 5779 5780 5780 5780 5781 5781 5782 5782 5782 5783 5783 5783 5783 5783 5783 5784 5784 5785 5785 5785 5785 5785 5786 5785 5785 5784 5784 5784 5784 5784 5784 5784 5784 5785 5785 5786 5787 5789 5790 5792 5792 5793 5793 5794 5795 5796 5796 5797 5797 5797 5797
5758 5760 5761 5762 5765 5766 5767 5768 5770 5772 5773 5774 5775 5776 5777 5777 5778 5778 5779 5780 5780 5780 5780 5780 5780 5780 5781 5781 5781 5782 5782 5782 5782 5782 5782 5782 5781 5781 5781 5781 5782 5782 5782 5782 5782 5783 5783 5784 5785 5787 5788 5789 5790 5790 5791 5791 5792 5793 5793 5794 5794 5795 5796
5754 5755 5757 5759 5761 5762 5763 5765 5766 5768 5769 5771 5772 5773 5773 5774 5774 5775 5776 5777 5777 5777 5777 5777 5778 5778 5778 5778 5778 5779 5779 5779 5779 5778 5779 5779 5779 5778 5779 5779 5779 5780 5780 5780 5780 5781 5781 5782 5783 5784 5785 5787 5788 5788 5788 5789 5790 5790 5791 5791 5792 5792 5793